Preview of NWS' New Version of Forecast
This preview is not operational and should not be used for support decisions.

Regional Weather Roundup (RWR)

Issued by National Weather Service (NWS)

                            
000
ASUS42 KTBW 231716
RWRFL 
FLORIDA REGIONAL WEATHER ROUNDUP
NATIONAL WEATHER SERVICE TAMPA BAY RUSKIN FL
100 PM EDT SAT MAR 23 2019

NOTE: "FAIR" INDICATES FEW OR NO CLOUDS BELOW 12,000 FEET WITH NO
SIGNIFICANT WEATHER AND/OR OBSTRUCTIONS TO VISIBILITY.

FLZ001>010-012>015-112-114-115-231800-
PANHANDLE FLORIDA
  
CITY           SKY/WX    TMP DP  RH WIND       PRES   REMARKS
PENSACOLA      FAIR      71  32  23 N3        30.26S                  
PENSACOLA NAS  FAIR      70  37  29 SE9       30.26S                  
MILTON NAS       N/A     70  37  29 VRB3      30.26F                  
CRESTVIEW      FAIR      72  30  21 VRB3      30.27F                  
PANAMA CITY    FAIR      72  32  23 N5        30.23F                  
TYNDALL AFB    FAIR      71  33  25 SE7       30.24F                  
APALACHICOLA   FAIR      70  36  28 SE13      30.26S                  

STATION/POSITION SKY/WX   TEMP    WIND        PRES    WAVE   SWELL
                          AIR SEA DIR/SP/G            HT/PER HT/PER
                          (F)     (DEG/KT/KT) (MB)    (FT/S) (FT/S)
30.1N   87.6W                                 1025.4S   0
29.2N   88.2W                      60/ 10/ 12 1025.1F   1
PANAMA CITY BEAC           70 65  140/  2/  7 1024.6F
TOWER C                    62      80/  9/ 10 1025.1S

$$
FLZ011-016>038-118-127-128-134-139-239-231800-
NORTH FLORIDA
  
CITY           SKY/WX    TMP DP  RH WIND       PRES   REMARKS
MARIANNA       FAIR      69  34  27 CALM      30.25F                  
TALLAHASSEE    FAIR      71  36  27 N6        30.24F                  
PERRY          FAIR      73  33  23 NE8       30.25F                  
LIVE OAK       SUNNY     72  32  23 NE6       30.24F                  
CROSS CITY     FAIR      72  34  24 E6        30.24F                  
LAKE CITY      FAIR      70  34  26 E6        30.24F                  
GAINESVILLE    FAIR      75  36  24 N3        30.26F                  
WILLISTON        N/A    N/A N/A N/A MISG        N/A                   
PALATKA        FAIR     N/A N/A N/A E6        30.25F                  
MAYPORT NAS    FAIR      64  48  56 NE12      30.26S                  
JACKSONVILLE   FAIR      70  37  29 E9        30.24F                  
JAX NAS        FAIR      70  31  23 N7        30.25F                  
JAX CECIL      SUNNY    N/A N/A N/A N7        30.24F                  
FERNANDINA BEA FAIR      66  46  47 NE10      30.26F                  
ST AUGUSTINE   FAIR      65  49  56 NE12      30.26F                  

STATION/POSITION SKY/WX   TEMP    WIND        PRES    WAVE   SWELL
                          AIR SEA DIR/SP/G            HT/PER HT/PER
                          (F)     (DEG/KT/KT) (MB)    (FT/S) (FT/S)
SHELL POINT      NOT AVBL
KEATON BEACH               69      60/  6/  9 1024.2F
CEDAR KEY                  66     150/  5/  6 1024.0F
FERNANDINA                 62 62  360/  6/ 10 1025.4S
30.7N   81.3W                 62                N/A     2/ 4
MAYPORT                    60 62   50/  9/ 13 1024.7F
31.4N   80.9W              62 62   70/ 14/ 17 1024.1R   2/ 4
ST AUGUSTINE               61 63   10/ 12/ 14 1024.7F

$$
FLZ040-043>046-052-053-057-058-063-144-231800-
INTERIOR CENTRAL FLORIDA
  
CITY           SKY/WX    TMP DP  RH WIND       PRES   REMARKS
OCALA          FAIR      73  34  23 E9        30.24F                  
LEESBURG       FAIR      72  34  24 E8        30.24F                  
SANFORD        FAIR      73  39  29 NE8       30.23F                  
ORLANDO EXEC   FAIR      74  35  24 VRB5      30.23F                  
ORLANDO INTL   FAIR      75  36  24 NE9       30.23S                  
KISSIMMEE      FAIR      73  38  27 NE7       30.24F                  
WINTER HAVEN   FAIR      74  39  28 VRB5      30.24F                  
LAKELAND       SUNNY     72  43  35 CALM      30.24S                  
BARTOW         SUNNY     73  39  29 E10       30.22F                  
SEBRING        FAIR      74  42  31 E8        30.22F                  
OKEECHOBEE     FAIR      72  46  40 SW5       30.22F                  

$$
FLZ041-047-054-059-064-141-147-231800-
EAST CENTRAL FLORIDA
  
CITY           SKY/WX    TMP DP  RH WIND       PRES   REMARKS
ORMOND BEACH   SUNNY     68  45  42 NE9       30.24F                  
DAYTONA BEACH  FAIR      71  47  42 NE9       30.25S                  
DELAND         FAIR      72  43  35 NE8       30.23F                  
NEW SMYRNA BEA SUNNY     68  46  45 NE9       30.25F                  
TITUSVILLE     SUNNY     73  45  35 NE12      30.24S                  
MELBOURNE      FAIR      74  44  34 NE9       30.22F                  
VERO BEACH     FAIR      74  47  38 SE6       30.22F                  
FT PIERCE      FAIR      74  47  38 E7        30.22F                  
STUART         SUNNY     72  48  43 E9        30.23F                  

STATION/POSITION SKY/WX   TEMP    WIND        PRES    WAVE   SWELL
                          AIR SEA DIR/SP/G            HT/PER HT/PER
                          (F)     (DEG/KT/KT) (MB)    (FT/S) (FT/S)
28.5N   80.2W              65     320/ 10/ 12 1024.0R   3/11   2/11
28.9N   78.5W              71 74  340/  4/  6 1023.6R   5/ 7   5/ 7
TRIDENT PIER               71 67   60/  6/  9 1024.8S
28.4N   80.5W                 67                N/A     1/10
27.5N   80.2W                 69                N/A     2/11

$$
FLZ050-056-061-142-242-148-248-149-249-151-251-155-255-
160-260-231800-
WEST CENTRAL FLORIDA
  
CITY           SKY/WX    TMP DP  RH WIND       PRES   REMARKS
CRYSTAL RIVER  FAIR      73  34  23 E7        30.23F                  
INVERNESS      FAIR      72  37  28 NE8       30.24F                  
BROOKSVILLE    FAIR      76  38  25 N8        30.23F                  
CLEARWATER AIR FAIR      70  37  30 SE6       30.23F                  
ST PETE CLEARW FAIR      70  40  33 E6        30.23F                  
TAMPA INTL     FAIR      73  37  27 VRB3      30.23F                  
TAMPA EXEC     FAIR      73  43  33 SE3       30.23F                  
PLANT CITY     FAIR      73  41  31 NE3       30.25S                  
MACDILL AFB    FAIR      73  38  29 SE8       30.22F                  
PETER O KNIGHT PTSUNNY   73  43  33 NE8       30.23F                  
ST PETERSBURG  FAIR      71  46  40 E6        30.22F                  
SARASOTA       FAIR      75  43  31 NE12G17   30.20F                  
VENICE         FAIR      75  43  31 NE8G16    30.23S                  

STATION/POSITION SKY/WX   TEMP    WIND        PRES    WAVE   SWELL
                          AIR SEA DIR/SP/G            HT/PER HT/PER
                          (F)     (DEG/KT/KT) (MB)    (FT/S) (FT/S)
27.3N   84.2W                 72                N/A     2/ 5
CLEARWATER BEACH           69 67  360/  5/  6 1023.7F
MIDDLE TAMPA BAY           66      30/  9/ 11 1023.9F
VENICE                     70 71   30/  7/ 10 1023.2F

$$
FLZ066-069-070-075>078-162-262-165-265-231800-
SOUTHWEST FLORIDA AND KEYS
  
CITY           SKY/WX    TMP DP  RH WIND       PRES   REMARKS
PUNTA GORDA    FAIR      72  44  36 SE8       30.24S                  
FT MYERS       FAIR      71  43  36 E7        30.21F                  
SOUTHWEST INTL FAIR      72  46  39 SE9       30.22S                  
NAPLES         FAIR      72  52  49 E3        30.22S                  
MARCO ISLAND   FAIR      73  50  44 S8        30.23F                  
IMMOKALEE      FAIR      75  46  35 SE9       30.20F                  
MARATHON       FAIR      74  52  46 NE8       30.20F                  
KEY WEST NAS   FAIR      76  51  41 N9        30.21S                  
KEY WEST INTL  FAIR      75  53  46 VRB7      30.21F                  

STATION/POSITION SKY/WX   TEMP    WIND        PRES    WAVE   SWELL
                          AIR SEA DIR/SP/G            HT/PER HT/PER
                          (F)     (DEG/KT/KT) (MB)    (FT/S) (FT/S)
NAPLES                     70 70  190/  6/  7 1023.3F
26.0N   85.6W              70 79   50/  6/  8 1023.7F   1/ 6   2/ 6
DRY TORTUGAS               70      60/  8/  9 1023.1F
SAND KEY                   69                 1023.0F
SOMBRERO KEY               68                 1022.1F
MOLASSES REEF              70 77   40/  9/ 11 1022.6F

$$
FLZ067-068-071>074-168-172>174-231800-
SOUTHEAST FLORIDA 
  
CITY           SKY/WX    TMP DP  RH WIND       PRES   REMARKS
W PALM BEACH   FAIR      75  54  47 VRB7      30.21F                  
BOCA RATON     SUNNY     77  57  50 E12       30.21S                  
FT LAUDER-EXEC FAIR      76  54  46 E10G16    30.20F                  
FT LAUDERDALE  PTSUNNY   75  56  51 E6        30.19F                  
POMPANO BEACH  FAIR      76  55  48 VRB6      30.20F                  
PEMBROKE PINES FAIR      75  54  47 E8        30.21F                  
OPA LOCKA      FAIR      77  53  43 VRB6      30.20F                  
MIAMI          FAIR      77  54  44 SE9       30.20F                  
WEST KENDALL   FAIR      77  54  44 E8G20     30.20F                  
HOMESTEAD      NOT AVBL                                               

STATION/POSITION SKY/WX   TEMP    WIND        PRES    WAVE   SWELL
                          AIR SEA DIR/SP/G            HT/PER HT/PER
                          (F)     (DEG/KT/KT) (MB)    (FT/S) (FT/S)
VIRGINIA KEY               72 75   50/  5/  8 1022.0F
LAKE WORTH                 70 75   10/  6/  9 1024.1F
FOWEY ROCKS                70 78  360/  9/ 10 1023.1F
SETTLEMENT POINT           72      80/  7/  8 1023.0F

$$